DW7854 Weather Reports


time (UTC)temp
C
wind
direction
speed
KPH
gust
KPH
rain 1hr
cm
rain 24hr
cm
rain mn
cm
humidity
%
barometer
mb
20260502163827 21 45 3.2 11.3 0.00 0.00 0.00 41 1019.6
20260502163103 21 93 0.0 14.5 0.00 0.00 0.00 39 1020.0
20260502162927 21 330 6.4 12.9 0.00 0.00 0.00 38 1019.6
20260502162027 21 317 4.8 12.9 0.00 0.00 0.00 41 1019.7
20260502161503 21 333 6.4 14.5 0.00 0.00 0.00 42 1020.1
20260502160227 21 343 3.2 9.7 0.00 0.00 0.00 44 1019.7
20260502160105 20 5 1.6 9.7 0.00 0.00 0.00 47 1020.1
20260502151611 19 22 3.2 8.0 0.00 0.00 0.00 60 1019.9
20260502150106 18 47 6.4 12.9 0.00 0.00 0.00 62 1019.9
20260502140105 15 128 0.0 3.2 0.00 0.00 0.00 97 1019.8
20260502130227 11 60 0.0 1.6 0.00 0.00 0.00 97 1019.0
20260502123527 10 76 0.0 1.6 0.00 0.00 0.00 96 1018.5
20260502123003 9 76 0.0 0.0 0.00 0.00 0.00 96 1018.8
20260502122627 9 0 0.0 0.0 0.00 0.00 0.00 96 1018.3
20260502121727 9 0 0.0 0.0 0.00 0.00 0.00 96 1018.2
20260502121530 8 76 0.0 0.0 0.00 0.00 0.00 95 1018.6
20260502120827 9 19 0.0 1.6 0.00 0.00 0.00 95 1018.0
20260502120106 8 10 0.0 1.6 0.00 0.00 0.00 95 1018.4
20260502115927 9 20 0.0 1.6 0.00 0.00 0.00 95 1017.9
20260502114605 8 329 0.0 0.0 0.00 0.00 0.00 95 1018.2
20260502114127 9 0 0.0 0.0 0.00 0.00 0.00 95 1017.7
20260502113227 9 0 0.0 0.0 0.00 0.00 0.00 95 1017.7
20260502113004 9 329 0.0 0.0 0.00 0.00 0.00 95 1018.2
20260502112327 9 328 0.0 1.6 0.00 0.00 0.00 95 1017.7
20260502111625 9 329 0.0 3.2 0.00 0.00 0.00 95 1018.0
20260502111427 9 329 1.6 3.2 0.00 0.00 0.00 95 1017.5
20260502110008 9 329 0.0 0.0 0.00 0.00 0.00 95 1017.7
20260502105627 10 0 0.0 0.0 0.00 0.00 0.00 95 1017.3
20260502104727 10 328 0.0 1.6 0.00 0.00 0.00 94 1017.2
20260502104505 9 329 0.0 1.6 0.00 0.00 0.00 94 1017.7
20260502103827 10 0 0.0 0.0 0.00 0.00 0.00 95 1017.2
20260502103005 10 329 0.0 0.0 0.00 0.00 0.00 95 1017.6
20260502102927 10 0 0.0 0.0 0.00 0.00 0.00 95 1017.2
20260502101512 10 329 0.0 1.6 0.00 0.00 0.00 95 1017.4
20260502101127 10 328 0.0 1.6 0.00 0.00 0.00 95 1017.0
20260502100227 10 0 0.0 0.0 0.00 0.00 0.00 94 1017.0
20260502090105 10 329 0.0 0.0 0.00 0.00 0.00 94 1016.9
20260502080103 11 329 0.0 1.6 0.00 0.00 0.00 93 1016.7
20260502071127 12 328 0.0 1.6 0.00 0.00 0.00 93 1016.7
20260502070227 12 328 0.0 1.6 0.00 0.00 0.00 92 1016.7
20260502070019 12 329 0.0 1.6 0.00 0.00 0.00 92 1017.1
20260502065327 12 0 0.0 0.0 0.00 0.00 0.00 92 1016.8
20260502064605 12 329 0.0 0.0 0.00 0.00 0.00 93 1017.2
20260502064427 12 0 0.0 0.0 0.00 0.00 0.00 93 1016.8
20260502063527 12 0 0.0 0.0 0.00 0.00 0.00 93 1016.9
20260502063006 12 329 0.0 0.0 0.00 0.00 0.00 93 1017.3
20260502061727 12 0 0.0 0.0 0.00 0.00 0.00 92 1016.8
20260502061603 12 329 0.0 0.0 0.00 0.00 0.00 92 1017.3
20260502060827 13 0 0.0 0.0 0.00 0.00 0.00 92 1016.8
20260502060004 12 329 0.0 0.0 0.00 0.00 0.00 92 1017.3
20260502055027 13 328 0.0 1.6 0.00 0.00 0.00 92 1016.9
20260502054503 12 329 0.0 0.0 0.00 0.00 0.00 92 1017.3
20260502054127 13 0 0.0 0.0 0.00 0.00 0.00 92 1016.9
20260502053227 13 0 0.0 0.0 0.00 0.00 0.00 91 1016.9
20260502053003 13 329 0.0 0.0 0.00 0.00 0.00 91 1017.4
20260502052327 13 0 0.0 0.0 0.00 0.00 0.00 91 1016.9
20260502051607 13 329 0.0 0.0 0.00 0.00 0.00 91 1017.3
20260502051427 13 0 0.0 0.0 0.00 0.00 0.00 91 1016.9
20260502050527 13 328 0.0 1.6 0.00 0.00 0.00 91 1016.7
20260502050008 13 329 0.0 0.0 0.00 0.03 0.00 91 1017.1
20260502045627 13 0 0.0 0.0 0.00 0.00 0.00 90 1016.8
20260502044727 13 0 0.0 0.0 0.00 0.00 0.00 90 1016.7
20260502044604 13 329 0.0 0.0 0.00 0.03 0.00 90 1017.1
20260502043827 13 0 0.0 0.0 0.00 0.00 0.00 90 1016.4
20260502043004 13 329 0.0 0.0 0.00 0.03 0.00 89 1016.8
20260502042926 13 0 0.0 0.0 0.00 0.03 0.00 89 1016.4
20260502042026 13 329 0.0 1.6 0.00 0.03 0.00 88 1016.4
20260502041606 13 329 0.0 1.6 0.00 0.03 0.00 88 1016.9
20260502041126 14 328 0.0 1.6 0.00 0.03 0.00 88 1016.5
20260502040227 14 0 0.0 0.0 0.00 0.03 0.00 88 1016.5
20260502040008 14 329 0.0 0.0 0.00 0.05 0.00 88 1016.9
20260502035327 14 0 0.0 0.0 0.00 0.03 0.00 87 1016.5
20260502034504 14 329 0.0 0.0 0.00 0.05 0.00 87 1017.0
20260502034426 14 0 0.0 0.0 0.00 0.03 0.00 87 1016.6
20260502033526 15 0 0.0 0.0 0.00 0.05 0.00 87 1016.5
20260502033102 14 329 0.0 0.0 0.00 0.05 0.00 87 1017.0
20260502032627 15 0 0.0 0.0 0.00 0.05 0.00 88 1016.7
20260502031726 15 0 0.0 0.0 0.00 0.05 0.00 88 1016.6
20260502031504 14 329 0.0 1.6 0.00 0.05 0.00 88 1017.1
20260502030008 15 329 0.0 1.6 0.00 0.05 0.00 87 1016.9
20260502025926 15 328 0.0 1.6 0.00 0.05 0.00 87 1016.5
20260502025026 15 0 0.0 0.0 0.00 0.05 0.00 87 1016.3
20260502024507 15 329 0.0 0.0 0.00 0.05 0.00 86 1016.6
20260502024126 15 0 0.0 0.0 0.00 0.05 0.00 85 1016.1
20260502023226 15 0 0.0 0.0 0.00 0.05 0.00 85 1015.9
20260502023104 15 329 0.0 0.0 0.00 0.05 0.00 85 1016.3
20260502021503 15 329 0.0 0.0 0.00 0.05 0.00 84 1016.0
20260502021426 15 0 0.0 0.0 0.00 0.05 0.00 84 1015.6
20260502020526 15 0 0.0 0.0 0.00 0.05 0.00 82 1015.5
20260502015626 15 0 0.0 0.0 0.00 0.05 0.00 83 1015.4
20260502014726 16 0 0.0 0.0 0.00 0.05 0.00 82 1015.3
20260502014602 15 329 0.0 0.0 0.00 0.05 0.00 82 1015.6
20260502013826 16 0 0.0 0.0 0.00 0.05 0.00 82 1015.2
20260502013105 16 329 0.0 0.0 0.00 0.05 0.00 81 1015.4
20260502012926 16 0 0.0 0.0 0.00 0.05 0.00 81 1015.0
20260502012026 16 328 0.0 1.6 0.00 0.05 0.00 80 1014.8
20260502011508 16 329 0.0 0.0 0.00 0.05 0.00 79 1015.2
20260502011126 16 0 0.0 0.0 0.00 0.05 0.00 79 1014.7
20260502010226 16 0 0.0 0.0 0.00 0.05 0.00 78 1014.7
20260502010104 16 329 0.0 0.0 0.00 0.05 0.00 78 1015.0
20260502005326 17 0 0.0 0.0 0.00 0.05 0.00 78 1014.7
20260502004515 17 329 0.0 1.6 0.00 0.05 0.00 77 1015.0
20260502004426 17 328 0.0 1.6 0.00 0.05 0.00 77 1014.6
20260502003526 17 0 0.0 0.0 0.00 0.05 0.00 75 1014.4
20260502003009 17 329 0.0 1.6 0.00 0.05 0.00 75 1014.8
20260502002626 17 291 0.0 1.6 0.00 0.05 0.00 74 1014.4
20260502001726 18 0 0.0 0.0 0.00 0.05 0.00 72 1014.3
20260502001502 18 238 0.0 1.6 0.00 0.05 0.00 72 1014.7
20260502000826 18 0 0.0 0.0 0.00 0.05 0.00 72 1014.4
20260502000003 18 272 0.0 0.0 0.00 0.05 0.00 68 1014.8
20260501235926 18 0 0.0 0.0 0.00 0.05 0.00 68 1014.4
20260501235026 18 0 0.0 0.0 0.00 0.05 0.00 67 1014.2
20260501234504 18 267 0.0 0.0 0.00 0.05 0.00 66 1014.5
20260501234126 18 0 0.0 0.0 0.00 0.05 0.00 65 1013.9
20260501233226 18 113 0.0 1.6 0.00 0.05 0.00 63 1013.9
20260501233006 18 113 0.0 3.2 0.00 0.05 0.00 63 1014.2
20260501232326 19 136 1.6 6.4 0.00 0.05 0.00 61 1013.8
20260501231507 19 125 3.2 6.4 0.00 0.05 0.00 59 1014.3
20260501231426 19 136 1.6 8.0 0.00 0.05 0.00 59 1013.9
20260501230526 19 109 3.2 8.0 0.00 0.05 0.00 58 1013.5
20260501230004 19 123 3.2 8.0 0.00 0.05 0.00 57 1013.7
20260501225626 20 84 3.2 6.4 0.00 0.05 0.00 59 1013.2
20260501224726 20 71 3.2 12.9 0.00 0.05 0.00 56 1012.6
20260501224603 19 155 3.2 12.9 0.00 0.05 0.00 57 1012.9
20260501223826 20 91 1.6 8.0 0.00 0.05 0.00 61 1012.5
20260501223007 19 100 0.0 4.8 0.00 0.05 0.00 64 1013.2
20260501222926 19 93 1.6 4.8 0.00 0.05 0.00 63 1012.8
20260501222026 19 90 0.0 4.8 0.00 0.05 0.00 61 1012.8
20260501221507 19 75 0.0 4.8 0.00 0.05 0.00 60 1013.3
20260501221126 19 87 1.6 3.2 0.00 0.05 0.00 59 1012.9
20260501220226 19 98 3.2 11.3 0.00 0.05 0.00 58 1012.9
20260501220107 19 90 1.6 11.3 0.00 0.05 0.00 59 1013.3
20260501215326 20 85 3.2 8.0 0.00 0.05 0.00 58 1012.9
20260501214603 19 68 1.6 11.3 0.00 0.05 0.00 58 1013.2
20260501214426 20 56 1.6 11.3 0.00 0.05 0.00 58 1013.0
20260501213526 20 31 4.8 9.7 0.00 0.05 0.00 57 1013.0
20260501213114 19 54 3.2 12.9 0.00 0.05 0.00 56 1013.6
20260501212626 20 24 3.2 12.9 0.00 0.05 0.00 56 1013.2
20260501211726 20 30 4.8 19.3 0.00 0.05 0.00 55 1013.4
20260501211505 20 59 6.4 17.7 0.00 0.05 0.00 55 1013.7
20260501210826 20 17 3.2 12.9 0.00 0.05 0.00 58 1013.1
20260501210103 20 9 3.2 8.0 0.00 0.05 0.00 59 1013.2
20260501205926 20 54 3.2 8.0 0.00 0.05 0.00 61 1012.7
20260501205026 20 60 3.2 12.9 0.00 0.05 0.00 62 1012.7
20260501204607 19 46 4.8 12.9 0.00 0.05 0.00 62 1013.2
20260501204126 19 41 1.6 8.0 0.00 0.05 0.00 62 1012.8
20260501203226 19 83 3.2 12.9 0.00 0.05 0.00 61 1012.9
20260501203009 18 122 1.6 16.1 0.00 0.05 0.00 60 1013.4
20260501202326 19 44 3.2 11.3 0.00 0.05 0.00 60 1013.0
20260501201503 18 65 3.2 17.7 0.00 0.05 0.00 59 1013.4
20260501201426 19 79 6.4 20.9 0.00 0.05 0.00 59 1013.1
20260501200526 19 97 4.8 16.1 0.00 0.05 0.00 59 1013.3
20260501200107 19 132 1.6 16.1 0.00 0.05 0.00 59 1013.9
20260501195626 19 104 8.0 16.1 0.00 0.05 0.00 60 1013.7
20260501194726 20 86 6.4 24.1 0.00 0.05 0.00 55 1013.8
20260501194510 20 126 11.3 24.1 0.00 0.05 0.00 56 1014.2
20260501193826 20 69 6.4 17.7 0.00 0.05 0.00 56 1014.1
20260501193020 19 109 6.4 14.5 0.00 0.05 0.00 57 1014.8
20260501192026 20 83 6.4 17.7 0.00 0.05 0.00 56 1014.9
20260501191506 19 65 3.2 17.7 0.00 0.05 0.00 59 1015.2
20260501190226 19 94 8.0 16.1 0.00 0.05 0.00 58 1015.1
20260501190104 18 43 8.0 17.7 0.00 0.05 0.00 61 1015.6
20260501185326 18 97 8.0 20.9 0.00 0.05 0.00 60 1015.3
20260501184604 18 114 6.4 17.7 0.00 0.05 0.00 62 1015.8
20260501184426 18 35 6.4 17.7 0.00 0.05 0.00 64 1015.4
20260501183526 18 50 3.2 12.9 0.00 0.05 0.00 66 1015.5
20260501183010 17 84 3.2 11.3 0.00 0.05 0.00 68 1015.8
20260501182626 18 74 4.8 19.3 0.00 0.05 0.00 67 1015.7
20260501181726 17 104 6.4 16.1 0.00 0.05 0.00 68 1015.8
20260501181504 17 155 6.4 16.1 0.00 0.05 0.00 68 1016.4
20260501180826 17 101 3.2 12.9 0.00 0.05 0.00 68 1016.1
20260501180011 16 102 1.6 9.7 0.00 0.05 0.00 69 1016.6
20260501175926 17 88 3.2 12.9 0.00 0.05 0.00 71 1016.2
20260501175026 16 114 3.2 8.0 0.00 0.05 0.00 70 1016.2
20260501174658 16 120 3.2 8.0 0.00 0.05 0.00 70 1016.4
20260501174126 16 112 1.6 8.0 0.00 0.05 0.00 72 1016.5
20260501173106 16 355 0.0 3.2 0.00 0.05 0.00 76 1016.6
20260501172326 16 111 0.0 3.2 0.00 0.05 0.00 75 1016.5
20260501171504 16 81 0.0 3.2 0.00 0.05 0.00 74 1016.8
20260501171426 16 61 0.0 6.4 0.00 0.05 0.00 74 1016.4
20260501170526 16 100 0.0 4.8 0.00 0.05 0.00 75 1016.6
20260501170006 16 41 0.0 4.8 0.00 0.05 0.00 76 1017.2